Regional Weather Roundup
Issued by NWS

Home | Current Version | Previous Version | Graphics & Text | Print | Product List | Glossary Off
Versions: 1 2 3 4 5 6 7 8 9 10 11 12 13 14 15 16 17 18 19 20 21 22 23 24 25 26 27 28 29 30 31 32 33 34 35 36 37 38 39 40 41 42 43 44 45 46 47 48 49 50

000
ASUS43 KLMK 282310
RWRKY
KENTUCKY REGIONAL WEATHER ROUNDUP
NATIONAL WEATHER SERVICE LOUISVILLE KY
600 PM EST WED JAN 28 2015

NOTE "FAIR" INDICATES FEW OR NO CLOUDS BELOW 12,000 FEET
WITH NO SIGNIFICANT WEATHER AND/OR OBSTRUCTIONS TO VISIBILITY.

KYZ001>023-026-027-061>063-070>075-290000-
WESTERN AND SOUTH CENTRAL KENTUCKY

CITY           SKY/WX    TMP DP  RH WIND       PRES   REMARKS
PADUCAH        CLEAR     47  30  51 SE7       30.12F
HENDERSON      CLEAR     43  23  45 SE7       30.15S
OWENSBORO      CLEAR     42  23  47 SE10      30.17F
HOPKINSVILLE   PTCLDY    48  25  40 SE7       30.17S
BOWLING GREEN  CLEAR     42  21  43 E7        30.21F
GLASGOW        CLEAR     41  16  36 SE5       30.21F
$$

KYZ024-025-028>034-038-045-046-053-290000-
NORTH CENTRAL KENTUCKY

CITY           SKY/WX    TMP DP  RH WIND       PRES   REMARKS
LOUISVILLE/SDF MOCLDY    39  14  36 SE9       30.22F WCI  33
LOUISVILLE/LOU PTCLDY    39  13  34 SE7       30.23S WCI  34
FORT KNOX      CLEAR     37  16  41 E7        30.19F WCI  32
$$

KYZ035>037-039>044-047>052-055>060-089>105-290000-
NORTHEAST KENTUCKY

CITY           SKY/WX    TMP DP  RH WIND       PRES   REMARKS
LEXINGTON      CLEAR     34  19  54 SE7       30.24F WCI  28
COVINGTON      MOCLDY    33  19  56 SE9       30.24S WCI  25
FRANKFORT      PTCLDY    34  18  52 SE5       30.24S WCI  30
$$

KYZ054-064>069-076>088-106>120-290000-
SOUTHEAST KENTUCKY

CITY           SKY/WX    TMP DP  RH WIND       PRES   REMARKS
JACKSON        CLEAR     34  17  50 CALM      30.25F
LONDON         CLEAR     38  17  42 E3        30.23F
SOMERSET       CLEAR     37  14  38 SE3       30.25S
MIDDLESBORO    CLEAR     36  23  59 CALM      30.25F
MONTICELLO     CLEAR     40  15  36 CALM      30.25F
$$



USA.gov is the U.S. government's official web portal to all federal, state and local government web resources and services.